Wind_Speed
18 25 26 21 21 19 20 21 22 23 24 25 26 26 25 23 22 21 20 20 22 23 22 20 19 18 17 17 17 17 16 16 15 15 15 15 15 15 15 15 15 14 14 14 14 15 15 14 15 14 14 15 15 16 16 16 16 17 18 19 19 20 19 20 21 22 22 22 22 22 21 21 20 20 20 21 21 21 20 19 18 21 22 20 21
20 24 26 23 22 20 21 22 23 24 24 25 26 26 25 23 22 21 21 22 24 24 22 20 19 18 17 17 17 16 16 16 15 15 15 14 14 15 15 14 15 14 14 14 15 16 15 15 15 14 14 14 14 15 15 14 15 16 18 19 19 19 19 19 19 19 20 20 21 21 20 20 19 18 18 18 19 19 20 19 17 20 21 19 20
22 24 25 24 22 21 22 23 24 24 24 26 26 26 25 23 23 22 22 23 25 24 22 21 19 18 17 17 16 16 16 16 16 16 15 14 14 14 14 15 15 14 14 14 15 16 16 16 15 15 14 14 14 14 14 13 15 16 18 19 19 18 18 18 18 18 18 18 19 19 19 19 18 17 17 17 18 19 20 20 18 20 20 18 20
22 23 25 24 22 22 22 24 24 24 24 25 26 26 25 24 23 22 22 23 25 24 22 21 19 18 17 17 17 17 17 16 16 15 15 14 13 13 14 15 14 14 13 14 14 15 15 15 15 15 14 14 14 13 12 13 15 16 17 17 18 18 18 18 18 18 19 19 18 17 17 17 18 18 18 17 17 19 20 20 19 20 19 19 20
21 23 25 24 22 22 23 24 24 24 25 25 26 26 25 24 23 22 22 24 25 24 22 21 19 18 17 18 17 17 17 17 16 15 15 14 13 14 14 14 14 13 13 13 13 13 13 15 15 15 14 14 13 11 11 13 15 16 16 16 17 17 18 18 18 18 18 18 17 17 16 15 17 18 19 18 16 17 19 19 18 19 19 19 19
21 23 25 23 21 22 23 24 25 24 25 25 26 26 25 24 23 22 23 25 25 24 23 21 19 18 19 19 17 17 17 17 17 16 14 14 14 14 14 14 13 13 13 13 12 12 12 13 14 14 14 13 12 10 10 12 15 16 16 16 16 15 15 15 14 14 15 14 12 14 15 15 15 16 17 18 17 17 18 18 18 18 18 18 17
21 22 22 22 19 21 24 24 25 24 25 25 25 26 25 24 23 23 23 24 25 24 23 20 19 20 20 19 18 17 17 18 17 15 14 14 14 14 14 14 12 12 12 12 11 10 11 12 12 12 12 12 11 10 8 10 14 17 16 17 17 16 14 11 9 7 7 5 6 12 16 15 15 14 14 16 16 16 18 18 18 18 17 18 17
21 20 19 20 18 21 25 24 24 24 24 25 26 26 25 24 23 22 23 24 25 24 21 19 19 20 20 20 18 17 17 16 16 15 14 13 14 15 13 13 12 11 12 10 10 10 10 10 10 10 10 11 10 10 9 9 13 17 17 18 18 16 12 9 7 5 5 8 9 14 15 14 14 14 14 15 15 16 16 17 17 17 17 17 17
20 19 19 18 17 22 25 23 24 24 24 25 25 25 25 24 23 22 23 24 24 22 19 17 18 20 20 19 18 18 16 15 15 15 14 13 14 15 13 12 12 11 11 10 9 9 9 9 9 9 9 9 10 10 10 10 13 17 18 17 15 13 11 11 12 13 12 14 18 18 16 15 14 15 15 14 15 15 15 16 17 17 17 17 17
20 19 18 16 17 23 24 23 24 24 24 25 25 25 25 24 23 23 23 24 23 19 18 17 18 19 19 19 18 17 16 16 15 14 14 14 15 15 12 12 12 11 10 9 8 9 9 9 8 8 7 8 9 9 10 11 14 17 17 15 13 11 11 13 15 17 16 15 17 17 15 16 15 15 14 14 14 13 14 16 17 17 17 17 18
20 19 18 16 18 23 23 24 24 24 24 25 25 25 24 23 23 23 23 22 21 18 18 18 18 18 18 18 18 17 16 16 16 16 16 16 15 14 12 12 12 11 9 9 9 9 8 7 7 6 6 7 8 9 10 12 16 18 17 14 11 9 11 12 13 16 17 16 17 15 15 16 17 16 13 13 14 13 15 16 16 17 17 17 17
19 19 17 15 19 23 23 23 24 24 24 24 24 23 23 23 23 23 23 21 20 19 18 17 16 16 17 19 18 17 16 16 17 17 16 16 15 14 13 13 12 10 9 9 9 8 7 6 5 5 6 6 7 9 12 14 17 17 15 11 9 9 10 12 13 15 17 17 17 16 17 18 17 15 14 15 15 15 16 16 16 16 16 17 17
20 19 18 17 19 22 22 23 23 23 23 24 22 22 23 24 23 23 22 21 20 19 18 16 16 17 18 19 17 15 15 16 18 18 17 16 15 15 14 13 12 10 9 9 8 7 7 6 5 5 5 6 8 10 13 16 16 14 12 10 10 10 11 13 15 16 17 16 16 16 17 17 15 15 15 15 16 16 16 16 16 16 16 16 17
20 19 19 18 19 21 22 22 22 23 23 22 22 22 24 23 22 22 21 20 19 18 18 17 17 19 19 18 15 14 14 17 19 18 17 15 14 14 14 13 12 10 9 8 7 6 6 6 6 5 6 7 8 11 14 15 14 12 10 10 10 11 11 13 15 16 17 16 16 17 17 15 15 15 15 15 16 16 16 16 15 16 16 17 17
20 19 19 19 19 19 20 21 21 22 21 21 22 23 22 21 21 21 20 19 19 19 19 18 19 19 19 17 15 14 14 16 18 17 17 15 14 14 14 12 11 11 10 8 7 6 6 6 6 6 7 8 9 11 14 14 13 11 10 10 10 12 12 14 15 16 16 16 15 16 16 15 14 15 14 15 15 16 15 15 15 15 16 16 16
20 20 21 22 19 18 18 19 20 20 20 21 22 21 20 19 20 20 19 19 19 20 19 18 19 18 18 17 15 14 14 15 16 15 16 15 14 15 13 11 11 10 9 8 7 6 7 7 6 6 7 9 9 11 12 14 12 10 11 11 12 13 14 15 15 15 15 15 15 15 15 15 14 14 13 14 15 15 15 15 15 15 15 15 15
20 20 22 24 21 19 17 17 18 18 19 19 18 18 17 18 20 20 19 19 20 19 18 17 18 18 17 16 15 14 14 14 14 14 15 15 15 15 14 12 11 10 9 8 7 7 7 7 7 7 8 9 10 11 12 12 12 12 13 14 15 17 17 17 16 16 16 15 16 15 15 14 14 14 13 13 14 14 15 15 14 15 15 15 16
20 20 22 23 21 19 17 16 17 15 15 15 15 15 16 18 19 19 19 19 18 17 16 17 18 17 16 15 14 13 14 14 14 14 15 15 15 15 14 12 11 10 9 8 7 7 7 6 7 7 7 9 10 11 13 14 15 15 15 15 15 16 17 16 16 16 16 14 13 13 14 14 13 12 13 13 14 14 14 14 14 15 15 15 16
20 21 22 21 20 19 17 16 16 14 13 13 13 13 15 17 18 19 19 17 16 16 16 18 17 16 15 15 14 13 14 14 13 14 14 16 15 14 13 12 12 10 10 8 7 8 8 6 6 7 7 9 9 12 15 17 17 15 14 13 12 12 13 14 15 16 14 12 10 12 15 14 12 12 12 13 13 13 14 14 14 14 14 14 15
20 22 22 21 21 20 18 18 18 16 15 14 13 12 14 17 18 17 17 16 16 17 18 18 17 16 16 15 14 14 13 13 13 13 14 15 15 14 13 12 11 10 9 8 8 8 8 6 6 7 7 8 8 11 15 16 14 13 12 12 13 14 14 14 14 13 12 11 10 13 15 13 12 12 12 12 12 12 13 13 13 13 13 13 14
20 21 21 22 25 25 24 24 23 22 21 19 17 16 17 18 17 16 15 15 17 18 18 17 17 16 15 15 15 13 13 13 13 13 14 14 15 14 14 12 11 10 8 9 8 8 7 6 7 7 8 8 8 9 11 13 12 12 12 13 13 14 14 13 12 12 11 10 11 13 13 13 12 12 11 11 11 12 13 12 12 13 13 13 13
19 18 17 21 26 28 26 27 29 29 28 25 23 21 21 20 18 16 16 16 17 17 17 16 16 15 15 15 14 13 12 12 13 14 15 15 15 14 14 13 12 11 9 9 9 8 7 7 7 7 8 8 8 7 8 10 10 11 11 11 11 10 9 10 11 12 11 9 11 13 11 12 12 11 11 11 11 12 12 12 12 13 12 12 13
19 16 16 19 24 28 27 28 29 29 29 29 27 25 24 22 19 17 17 17 17 17 16 15 15 14 15 15 14 14 12 12 14 14 14 15 14 13 13 13 12 12 11 10 9 9 7 7 6 6 6 7 7 5 4 6 8 9 9 9 10 8 7 10 12 11 9 8 11 13 11 12 12 10 10 10 11 11 12 12 12 12 12 12 12
18 18 19 21 25 30 30 29 31 29 29 30 29 29 27 24 21 19 19 18 18 17 15 15 14 14 15 14 14 15 14 13 14 13 13 14 15 13 13 12 12 12 11 11 10 10 8 7 7 6 6 6 5 3 4 3 4 5 4 6 7 6 6 10 12 11 9 8 12 13 10 10 11 11 10 10 10 11 11 10 11 11 12 12 11
19 19 19 22 27 30 30 31 31 32 32 32 32 33 30 26 24 22 20 20 19 18 17 16 15 15 14 15 15 15 14 14 14 15 14 14 15 15 14 13 12 11 12 13 12 11 10 8 7 8 8 6 3 4 6 4 4 4 1 2 3 5 8 11 12 11 8 8 13 12 9 10 11 11 10 10 10 10 9 9 11 11 11 11 11
19 18 18 22 28 28 31 33 33 34 34 34 35 35 32 28 26 23 22 20 19 19 18 17 18 16 15 16 16 15 15 15 15 15 15 14 15 15 14 13 12 11 12 12 12 12 11 9 8 8 7 6 6 6 7 6 5 4 4 3 3 4 8 11 10 8 7 9 13 11 10 12 11 10 9 9 9 9 8 9 11 11 10 11 11
18 18 18 21 27 28 31 33 33 35 35 34 35 34 32 30 26 24 23 21 21 21 19 19 18 17 16 17 16 16 17 16 14 14 14 14 14 14 14 14 12 11 13 14 13 11 10 9 9 9 8 8 8 7 6 6 6 4 6 5 4 4 7 12 8 6 8 11 13 11 11 11 9 9 9 9 9 8 9 10 10 10 9 10 11
19 19 18 20 24 28 32 31 32 35 35 34 32 33 32 30 27 25 25 23 23 22 20 19 17 17 17 17 16 17 17 16 14 14 14 14 15 14 13 14 13 11 11 14 14 9 8 10 10 10 9 9 8 8 8 8 6 6 6 3 5 3 9 13 10 8 9 11 12 11 10 10 9 9 9 9 9 9 9 9 10 9 9 10 9
20 21 20 20 20 26 29 26 28 32 34 32 30 31 31 29 28 27 26 23 22 21 20 18 17 19 19 18 18 17 18 17 15 13 13 14 14 14 14 15 15 12 9 10 13 10 9 10 9 8 8 9 9 8 8 8 7 8 5 6 4 4 9 14 13 11 9 9 11 11 11 10 10 10 10 9 9 9 8 8 9 9 9 8 8
19 21 21 21 19 22 24 23 23 26 30 29 25 25 26 27 27 27 27 23 22 21 19 19 19 21 20 19 19 18 18 18 15 14 13 14 15 15 15 15 14 12 10 9 11 10 10 9 8 8 7 8 8 8 7 7 7 4 7 8 6 8 11 15 14 13 11 10 11 12 11 10 11 11 10 10 9 9 8 8 8 8 8 8 8
18 19 19 21 21 21 23 24 24 26 31 28 22 21 22 24 25 26 26 21 21 21 19 19 20 21 20 19 19 18 18 17 16 15 15 16 17 15 15 14 13 12 11 10 11 10 9 9 9 9 9 8 8 8 6 7 6 7 11 9 8 9 12 17 15 13 14 12 11 12 11 11 11 11 11 10 9 8 8 8 8 9 8 8 7
17 18 18 20 23 22 23 23 26 32 34 28 24 23 22 23 23 24 23 19 20 21 19 19 19 21 20 19 19 19 17 15 15 16 14 14 15 14 13 12 11 12 11 11 12 10 9 9 8 8 9 7 7 5 4 7 2 14 15 12 11 9 13 19 17 14 14 12 12 12 12 12 11 10 11 11 9 8 8 8 9 9 8 8 7
16 19 19 19 20 20 20 21 27 34 32 25 25 24 22 23 22 21 20 20 20 20 19 19 19 21 20 19 19 18 17 13 14 16 13 12 14 12 11 9 10 10 10 10 11 10 9 10 8 7 7 5 4 3 3 5 5 20 20 14 12 13 17 19 18 17 15 13 12 12 12 12 11 10 10 10 10 9 8 9 9 8 7 7 8
15 18 19 20 21 20 21 21 25 30 27 24 25 24 21 20 20 19 19 20 19 18 20 20 19 20 19 19 18 18 16 11 11 12 8 12 11 10 11 11 11 10 10 10 10 9 9 9 8 7 7 5 4 3 4 3 9 21 19 14 12 15 17 17 17 17 15 14 12 12 12 12 12 10 9 9 9 8 8 8 7 7 6 6 8
14 19 20 22 23 24 25 25 25 25 24 23 23 22 20 18 19 19 20 20 17 16 18 19 19 19 19 19 17 17 16 10 8 7 5 12 12 11 13 12 11 10 10 11 10 8 8 8 8 7 8 8 6 4 4 1 12 22 17 13 14 15 15 14 16 16 14 14 13 12 12 11 11 10 8 8 9 9 7 6 6 5 5 6 7
14 19 20 22 23 23 26 26 24 22 23 23 19 19 19 17 17 19 20 19 17 17 18 19 19 19 18 17 17 16 13 9 9 9 8 13 14 12 13 12 11 11 11 11 9 8 8 8 8 7 9 9 7 5 4 2 13 22 17 11 12 14 14 14 14 14 12 12 12 11 12 11 11 10 9 7 7 8 7 6 5 4 6 8 8
16 19 19 22 23 22 24 25 24 21 22 22 18 19 20 18 17 18 19 18 17 17 18 19 17 17 17 17 16 14 11 10 12 12 11 13 15 15 14 13 13 12 11 10 7 7 8 7 6 6 7 6 5 6 5 4 12 19 14 9 12 14 13 13 13 13 12 11 11 11 12 12 11 11 10 7 6 7 7 5 5 5 7 9 10
18 19 19 22 23 22 25 23 21 20 20 20 18 20 21 18 17 16 16 17 17 16 17 17 15 14 16 17 15 12 12 13 13 13 13 14 16 16 15 14 13 11 11 10 7 7 8 7 7 5 5 4 3 6 6 6 10 13 10 8 12 14 11 12 12 12 12 13 12 11 10 10 11 10 10 9 7 7 8 7 7 7 8 9 9
17 19 20 22 23 23 23 20 18 19 19 20 18 19 19 18 17 15 13 14 16 16 16 16 14 14 15 15 13 11 13 15 13 14 14 15 16 16 14 14 13 10 9 9 7 8 8 7 7 5 4 3 4 8 8 9 13 13 11 9 12 12 10 11 11 11 13 12 12 10 10 10 10 9 9 9 8 7 8 8 7 7 7 8 8
16 19 20 22 23 21 20 19 18 19 19 19 18 17 17 16 17 16 14 12 13 14 14 13 11 12 13 13 12 10 13 14 13 14 15 14 15 16 14 12 11 10 8 8 9 9 9 8 7 6 4 3 6 8 8 13 18 16 12 11 13 11 10 11 10 10 12 11 10 10 10 10 9 9 8 7 7 8 8 8 7 6 7 7 7
17 21 21 20 20 17 18 19 19 19 18 18 17 15 15 15 15 15 14 13 11 11 11 10 10 11 12 12 11 11 13 13 12 15 16 15 13 14 13 11 9 9 8 9 10 10 9 8 7 6 5 5 6 7 8 14 17 14 10 11 13 11 10 11 10 10 11 10 10 9 10 11 9 9 8 7 7 8 8 9 8 7 7 8 7
16 20 22 21 19 17 17 18 17 16 15 14 14 13 12 12 11 10 12 14 13 13 11 11 12 13 13 12 11 11 11 11 11 14 16 13 12 12 12 11 9 9 9 9 9 10 9 8 7 6 6 5 6 7 9 11 12 11 9 8 9 10 11 11 9 8 8 9 9 9 9 10 9 8 8 8 7 7 7 9 8 7 7 7 6
16 19 22 22 20 19 18 17 16 13 11 11 10 9 9 9 9 9 11 13 14 15 14 12 13 13 13 14 14 12 11 10 10 13 14 12 13 13 12 12 10 9 10 9 9 9 8 7 7 6 6 6 7 7 8 9 12 13 10 5 3 4 6 7 8 7 6 7 9 9 9 9 8 7 7 7 7 7 7 8 8 7 7 6 6
16 18 21 23 21 19 17 16 16 14 12 11 9 9 10 9 8 7 8 11 12 13 13 13 13 14 14 15 15 13 13 13 11 11 12 12 13 13 13 13 12 11 12 11 10 10 10 9 7 7 7 8 8 6 6 9 12 12 7 3 2 2 3 4 7 8 6 6 7 7 8 10 10 9 10 9 8 8 8 8 7 5 5 4 5
17 19 20 20 18 17 16 15 16 16 15 14 13 13 12 10 9 8 9 11 11 11 12 12 13 14 14 14 14 13 14 13 12 12 12 11 12 13 13 13 13 12 12 11 10 9 10 10 8 7 6 7 8 7 5 6 8 9 7 4 3 1 1 5 8 8 7 6 6 6 8 10 10 10 13 12 10 8 6 6 5 4 4 3 4
19 20 20 18 19 19 17 17 18 17 17 17 15 14 13 12 11 12 13 12 9 9 11 12 13 13 14 14 12 11 12 11 9 12 12 11 12 12 12 12 13 12 11 11 11 9 10 9 8 7 5 5 8 9 7 6 6 7 7 5 4 4 6 7 5 4 7 8 7 7 8 9 9 9 11 13 11 8 5 5 6 5 5 6 8
20 22 19 20 21 19 16 18 19 18 19 18 16 15 17 19 18 15 15 15 11 10 12 14 14 14 14 13 10 9 11 9 6 9 10 10 11 12 11 12 12 11 10 9 10 10 10 9 8 7 6 6 7 9 9 7 7 7 5 5 5 6 10 9 5 4 5 5 7 9 10 10 10 9 9 10 9 8 6 7 7 7 9 11 11
20 18 19 25 24 19 17 18 18 18 19 19 18 17 18 21 21 18 18 19 16 14 14 14 15 14 12 11 8 8 9 7 6 8 8 8 9 11 11 12 11 10 10 9 9 10 9 9 9 8 7 7 7 8 9 8 7 7 5 6 6 5 9 9 8 8 5 3 5 8 10 11 10 9 9 8 7 8 8 10 9 9 12 14 11
11 14 28 31 27 24 23 21 18 17 17 19 20 18 18 20 20 21 21 19 17 16 15 14 14 12 11 10 8 7 7 6 7 8 8 8 7 8 10 10 10 10 10 9 9 10 10 10 10 9 7 8 7 7 8 7 7 7 5 5 6 7 8 8 9 9 7 5 4 5 9 11 9 8 9 8 8 9 10 10 11 13 15 15 12
13 21 26 26 27 28 29 25 22 21 21 23 24 22 22 22 22 23 23 21 18 17 15 14 13 11 10 11 8 7 8 8 9 9 9 8 7 7 8 8 8 8 9 9 10 10 9 10 9 8 7 7 7 7 7 7 6 6 5 4 5 7 7 6 6 8 8 6 4 6 11 10 8 7 9 10 10 9 10 11 14 17 17 14 11
21 21 21 22 27 29 29 28 25 25 25 26 27 25 23 24 25 25 24 24 22 20 17 15 14 12 10 11 10 10 11 10 9 9 9 8 8 8 7 7 7 7 7 9 10 10 8 9 8 7 6 6 6 6 6 7 6 5 6 4 5 7 6 5 7 8 8 7 5 6 10 12 10 10 11 11 11 11 11 13 15 17 15 12 12
Wind_Direction
132 145 147 152 156 159 162 163 165 164 164 161 161 160 158 155 152 150 147 146 144 142 142 141 138 135 133 132 131 129 126 122 116 110 106 105 106 107 105 103 100 97 95 91 87 84 81 81 82 83 84 84 85 84 82 83 83 87 94 96 96 95 94 93 92 92 92 90 86 83 81 81 81 82 86 89 89 87 82 75 71 67 65 66 68
134 147 147 152 156 160 163 163 164 164 164 163 162 161 159 155 152 150 148 147 145 144 144 143 140 137 135 133 133 130 127 123 116 110 108 108 108 109 105 102 101 99 96 92 87 84 81 80 80 82 86 91 91 87 83 82 84 88 98 99 96 97 95 94 93 92 91 89 87 85 82 80 82 85 87 87 85 85 87 83 76 71 68 67 67
135 146 148 152 156 160 163 164 164 165 164 164 163 162 160 155 152 151 149 148 145 145 146 145 141 139 137 135 134 129 127 123 116 113 110 109 109 108 105 102 102 100 98 95 90 85 81 77 76 77 85 100 99 92 86 87 92 93 101 102 100 101 98 95 92 90 89 87 86 82 80 79 80 81 80 78 77 75 78 82 83 77 72 70 68
134 143 151 152 156 161 163 164 165 165 164 164 164 161 159 156 153 152 151 149 146 145 146 146 142 141 140 138 134 128 126 122 116 113 111 111 110 109 105 105 104 103 102 97 93 88 82 77 75 73 80 102 104 95 93 98 101 99 105 108 106 105 104 102 98 95 91 89 87 81 79 76 74 74 72 70 72 73 72 76 82 81 75 71 69
132 145 152 152 157 162 164 165 165 165 164 163 163 162 159 156 154 153 151 149 149 147 147 146 143 142 142 141 134 128 127 122 117 114 116 116 112 110 108 109 108 107 105 101 99 91 84 79 77 72 75 96 102 96 103 109 108 107 110 111 106 105 107 107 108 107 104 99 93 89 85 78 72 68 67 69 72 75 75 74 76 80 76 71 70
136 148 150 150 154 161 165 165 166 165 163 164 162 161 160 157 155 153 151 150 152 151 149 147 143 143 142 141 134 129 129 125 122 122 122 119 115 112 111 113 112 111 108 105 103 94 89 84 79 74 73 88 101 105 115 117 115 114 114 112 105 101 100 99 104 110 113 106 94 92 84 79 75 68 67 70 75 79 80 77 74 77 76 74 72
139 145 146 149 150 161 166 165 166 164 163 165 163 162 160 158 155 154 153 151 153 152 150 148 143 142 144 143 137 132 131 129 129 130 127 121 119 115 114 118 118 115 111 108 105 99 94 89 82 77 74 79 94 109 122 124 121 120 116 108 99 94 90 88 88 92 107 76 71 98 88 81 78 74 74 73 78 82 82 82 78 77 76 77 76
141 143 143 146 148 160 164 165 166 164 165 165 164 162 161 159 155 155 154 153 153 152 151 147 143 144 147 147 142 137 135 136 136 136 134 129 123 120 122 123 121 116 115 115 111 105 98 93 85 77 77 76 82 93 107 126 127 123 116 104 99 96 89 84 64 44 60 49 72 100 90 84 82 79 80 79 82 83 82 85 82 79 78 78 79
145 142 139 140 147 159 163 165 165 164 165 165 164 162 161 159 156 155 155 154 153 152 150 145 143 146 150 150 146 143 142 144 142 141 140 136 128 127 131 128 124 119 120 123 117 109 98 91 84 80 82 80 81 83 96 116 127 127 122 111 106 100 85 75 63 61 73 81 93 99 90 87 85 82 81 81 84 87 85 83 81 80 80 80 82
146 140 134 134 146 159 162 163 164 164 165 165 164 161 161 158 155 155 155 155 153 151 146 142 142 146 151 152 149 147 148 148 147 144 141 137 131 134 139 133 126 123 126 129 119 107 97 94 93 94 93 89 86 89 99 112 124 131 129 120 110 95 76 69 66 71 80 87 93 92 89 88 86 84 84 84 85 93 89 81 82 82 81 81 82
146 139 133 135 149 159 161 162 163 163 164 164 163 161 159 156 155 155 155 154 152 148 143 142 141 144 149 150 150 150 150 149 149 144 139 137 136 142 144 134 129 132 137 130 118 109 109 113 113 108 99 93 90 95 107 116 124 130 130 123 107 86 69 65 61 73 84 84 82 79 80 85 85 86 85 84 82 87 86 82 83 82 81 80 82
137 130 135 142 151 158 159 161 162 162 163 163 161 158 158 156 156 156 155 152 150 146 144 146 143 145 146 148 150 151 152 149 148 143 138 139 142 148 145 136 137 146 143 129 121 124 134 136 123 109 95 92 95 102 113 123 127 129 127 118 100 83 70 65 60 75 88 86 84 81 81 84 85 86 84 81 81 85 86 85 84 81 81 80 82
129 126 142 145 149 156 157 159 160 161 162 161 160 158 159 158 158 157 154 151 148 146 148 149 144 145 145 147 149 150 154 153 151 146 141 143 149 153 147 144 149 155 145 134 137 142 150 138 117 103 95 99 103 110 121 128 129 128 122 110 95 78 67 66 67 79 89 87 86 83 83 85 84 85 84 83 83 86 87 85 84 82 82 81 81
126 125 138 139 146 156 155 156 156 157 160 161 160 159 159 159 159 157 154 152 150 151 153 150 147 148 147 147 146 147 153 156 156 151 147 147 153 156 151 150 156 158 147 146 152 149 145 127 110 102 100 104 106 114 125 131 129 127 118 104 91 74 66 67 77 88 90 89 89 85 85 86 85 86 86 86 87 88 88 86 85 84 83 83 83
128 127 132 133 143 152 152 154 154 156 159 160 159 158 159 160 160 157 155 154 155 157 156 154 152 153 151 147 149 149 151 157 158 155 152 150 158 158 152 155 163 161 153 159 160 148 140 122 110 108 108 106 104 110 123 132 128 122 109 95 82 70 65 68 84 96 94 95 94 92 91 89 89 89 88 89 90 91 89 87 86 85 84 85 86
132 130 132 134 139 146 150 154 156 157 157 156 157 157 159 160 161 160 158 158 159 160 158 157 156 157 155 151 152 152 155 160 160 161 157 155 165 163 155 161 166 160 158 165 160 151 144 125 116 117 119 113 105 105 117 130 127 115 99 85 72 65 65 75 92 101 97 96 94 93 91 90 91 91 92 92 92 92 91 90 89 88 88 86 87
136 134 134 135 138 140 143 150 155 155 155 155 157 159 161 161 163 164 162 159 159 160 161 160 158 159 158 156 154 155 161 165 164 165 163 163 170 169 162 163 166 164 169 171 161 161 150 129 119 121 130 122 111 105 112 125 122 107 92 81 75 71 74 81 92 98 99 99 95 95 95 96 97 96 96 94 93 94 93 93 92 91 90 89 88
135 135 131 131 135 134 135 145 150 149 153 155 158 163 164 163 164 166 162 158 159 161 161 161 160 161 161 159 156 157 161 165 167 168 169 171 176 177 170 167 168 170 178 176 168 169 154 134 120 120 136 131 117 108 108 117 116 105 94 88 84 84 89 90 92 97 102 105 101 99 98 99 101 99 98 96 96 96 95 95 93 92 92 91 91
130 131 128 129 130 127 131 139 140 144 149 152 160 166 166 166 165 164 161 158 160 159 157 160 161 162 163 160 156 158 159 164 167 169 173 177 180 183 180 176 169 174 181 174 176 174 158 141 121 114 132 139 125 113 112 114 114 107 98 91 83 83 89 93 98 101 102 105 103 99 99 100 102 102 100 99 99 97 95 95 94 93 93 93 93
130 132 132 132 131 133 140 141 139 142 147 154 164 168 168 167 164 163 160 156 155 153 153 155 157 160 161 160 158 159 160 163 165 166 171 175 181 184 187 185 176 183 180 174 181 174 163 145 124 113 121 140 138 124 121 118 113 107 97 85 77 74 76 87 100 103 103 103 101 102 108 110 106 104 102 100 99 97 96 95 96 95 94 94 94
135 139 139 141 146 150 152 150 149 150 153 161 169 170 170 168 167 165 159 154 154 153 153 153 155 159 162 163 161 161 164 165 164 163 164 169 180 186 190 189 187 191 180 177 183 174 169 149 131 121 112 128 142 137 132 125 115 108 100 90 84 79 81 94 98 98 102 103 104 110 114 112 106 104 103 101 99 97 98 98 96 93 92 94 95
145 145 141 151 159 155 153 155 157 158 160 162 166 170 170 169 170 167 161 157 158 157 156 154 157 161 166 168 165 165 168 167 167 166 165 168 179 188 191 190 190 191 184 182 185 183 175 155 143 133 123 125 135 144 145 139 127 115 107 97 88 79 89 105 104 102 104 105 113 116 113 110 109 108 105 102 100 99 100 99 97 96 94 95 95
156 150 151 162 164 157 157 160 161 164 163 159 162 167 168 169 170 167 164 162 161 162 160 159 163 168 170 171 171 171 170 170 171 169 169 170 174 184 188 189 191 193 190 187 191 192 181 168 154 143 143 128 122 136 156 160 146 130 115 96 83 82 105 111 104 104 105 106 115 118 114 113 114 111 107 103 102 101 99 99 99 101 97 94 94
156 153 166 173 168 163 162 163 166 167 163 160 161 164 166 168 170 169 169 167 165 166 166 165 168 172 173 176 178 174 171 173 174 171 170 170 172 179 184 188 194 197 194 194 196 191 187 179 162 157 161 135 120 150 191 200 174 161 122 76 74 94 113 108 105 110 111 106 110 118 119 117 117 111 107 104 102 101 100 101 100 99 96 93 94
155 155 166 171 168 167 165 165 169 168 165 165 163 164 164 166 169 170 170 170 169 169 169 169 171 174 178 182 180 173 170 172 176 177 174 172 173 177 182 187 192 193 192 199 197 191 192 187 180 175 166 158 164 192 207 218 204 204 223 30 62 102 112 108 114 124 123 111 111 119 116 110 115 112 110 108 105 104 100 99 98 97 95 95 94
158 156 157 165 168 169 169 169 171 170 169 167 165 164 162 163 167 169 168 169 173 172 170 170 174 179 182 183 180 174 167 169 176 182 182 178 177 180 183 185 186 182 182 189 190 193 195 192 202 193 181 200 214 217 215 212 214 225 231 212 77 90 134 121 121 135 126 117 118 120 110 106 115 117 115 115 111 108 103 100 100 100 100 100 98
161 156 151 159 167 172 172 172 173 172 170 168 166 164 162 162 167 169 165 170 177 175 171 170 177 184 186 185 183 178 170 168 174 183 189 183 181 187 186 184 184 182 178 175 179 193 196 195 212 210 210 214 210 216 217 221 227 227 223 199 86 80 142 126 121 141 127 120 123 117 106 107 118 122 115 113 110 105 102 103 102 98 99 100 97
163 155 148 155 167 173 172 172 173 173 170 169 168 167 164 162 166 169 166 171 179 177 173 173 180 185 188 190 187 184 178 170 171 186 197 187 186 192 187 184 188 189 185 182 182 185 191 199 210 210 216 218 210 214 216 224 226 223 223 137 94 107 129 129 129 135 132 123 122 118 111 111 116 118 115 115 111 104 102 102 102 97 95 99 102
160 155 152 155 166 173 172 172 171 172 170 168 171 169 165 162 165 170 168 168 172 171 171 176 182 182 187 192 189 187 180 172 172 184 197 191 190 195 189 188 194 194 195 193 183 180 192 203 207 205 221 221 211 219 213 212 228 232 200 114 135 168 132 142 145 138 136 123 123 123 117 115 113 116 118 117 113 108 106 103 104 103 102 104 106
158 159 155 156 163 169 172 171 168 172 170 167 171 170 165 163 166 170 168 164 168 169 168 174 179 181 189 192 192 189 182 181 177 175 193 200 194 196 195 190 192 191 189 186 178 184 195 198 203 203 219 219 211 222 210 207 233 209 136 134 171 170 143 151 152 142 141 134 132 126 119 119 115 118 118 115 113 111 110 109 111 110 107 101 95
153 159 155 159 163 164 170 171 170 173 170 168 170 170 167 167 168 168 166 164 170 171 168 175 178 182 189 191 195 193 187 188 183 184 199 202 196 195 194 187 182 179 178 180 180 186 189 188 196 197 205 216 216 217 203 218 232 88 99 129 142 151 155 157 154 146 147 145 136 126 125 127 119 118 119 117 118 116 115 114 110 104 100 97 99
152 159 157 163 165 165 169 172 174 173 171 169 169 169 169 172 171 163 162 164 169 169 168 174 178 184 190 192 196 194 191 189 189 194 193 196 203 193 180 175 172 171 175 180 178 178 185 187 190 196 201 213 223 211 198 236 198 87 104 133 138 150 156 159 156 146 150 150 138 132 130 132 127 120 119 122 123 121 118 114 107 100 94 87 90
155 162 162 163 166 167 168 175 178 175 172 170 168 167 168 173 170 160 159 161 165 169 169 172 178 187 192 192 195 194 193 190 194 197 193 215 221 185 163 168 171 174 180 181 176 178 188 188 188 199 200 204 234 200 194 246 95 98 110 123 142 152 148 158 158 146 150 149 141 136 130 133 133 125 122 125 125 120 114 113 111 105 97 80 71
155 161 165 160 164 167 170 180 184 178 170 168 169 165 163 168 167 162 164 165 166 167 168 172 179 188 191 191 194 196 195 199 204 199 216 246 224 172 170 178 176 176 178 178 179 187 189 187 192 201 200 201 229 204 203 235 109 110 108 107 133 142 141 157 160 152 150 145 144 139 134 136 132 128 129 133 131 125 119 116 113 110 105 85 73
159 163 168 162 166 171 175 181 183 178 168 170 175 166 158 162 164 165 170 171 168 165 167 171 177 185 190 193 198 198 196 203 206 187 221 229 201 183 187 178 172 172 177 180 181 194 188 183 193 198 200 202 209 198 197 180 104 109 107 112 129 131 133 148 157 159 151 144 148 147 146 144 134 128 130 140 141 137 137 131 124 120 111 96 86
162 161 165 167 171 176 179 178 176 176 173 174 176 165 157 159 165 167 172 170 166 168 171 172 177 185 191 199 203 199 192 189 190 181 194 201 192 193 187 174 174 173 179 181 181 198 190 184 195 197 199 203 205 191 185 135 96 101 105 112 119 126 133 138 152 159 152 150 154 156 157 148 139 135 136 145 144 144 149 141 135 127 114 112 109
161 158 162 168 174 177 180 179 174 176 177 173 170 166 158 157 163 166 170 168 164 169 169 169 175 186 196 203 203 197 184 175 183 189 194 192 193 194 183 179 184 179 181 180 187 203 189 186 192 188 198 206 198 178 159 112 94 97 102 105 113 128 135 136 148 157 156 157 156 161 160 152 148 144 144 147 148 152 150 143 139 134 131 129 123
161 160 164 166 169 173 178 178 176 178 175 166 170 171 159 152 156 164 171 166 163 165 163 165 171 184 197 203 200 193 183 179 184 191 197 197 197 196 184 180 186 187 183 179 193 201 188 190 184 175 195 211 175 153 137 109 95 96 104 111 118 130 138 137 143 152 159 157 152 157 158 157 155 148 148 149 152 153 144 141 135 136 147 142 134
163 164 168 169 166 169 173 174 175 179 175 167 172 171 158 149 150 159 167 166 167 165 158 158 167 183 194 196 192 188 185 183 187 191 198 203 201 199 186 177 187 195 182 180 199 191 183 186 180 175 186 193 149 140 132 113 103 107 118 113 111 123 136 138 139 146 155 153 147 150 152 155 154 151 155 154 149 140 137 139 130 136 151 150 149
164 162 165 168 166 167 167 169 173 178 178 174 172 167 155 147 149 156 159 166 175 165 153 152 167 188 192 189 185 190 194 186 183 191 201 205 200 194 186 178 189 196 182 191 199 185 181 177 171 177 168 156 148 142 136 116 106 109 117 107 104 116 127 128 131 138 147 149 145 147 151 154 153 151 153 150 148 148 152 154 146 151 151 146 150
164 162 164 166 165 168 164 165 172 176 180 175 169 165 156 150 155 161 156 156 162 155 153 161 181 202 197 188 181 187 205 199 183 190 200 203 197 187 180 177 187 195 195 201 195 184 183 170 163 171 161 154 145 136 138 123 110 108 110 97 94 100 109 117 128 135 137 140 143 149 153 154 153 153 156 158 158 159 165 167 163 164 155 146 146
171 165 165 166 167 172 164 162 167 171 178 172 164 164 160 154 148 140 139 142 149 156 166 176 190 208 204 194 186 186 208 214 197 200 203 197 193 184 177 178 185 196 199 191 178 175 173 164 163 167 163 158 133 130 143 128 115 120 122 106 91 90 94 102 117 131 138 133 131 147 153 152 156 156 160 163 157 152 162 169 166 158 152 148 146
177 173 169 166 168 171 163 159 160 161 169 164 156 156 146 138 134 134 143 146 152 161 168 181 194 205 204 201 197 188 195 205 203 209 207 196 191 185 182 184 182 191 189 173 164 167 166 164 165 166 168 159 123 120 144 135 127 130 129 124 108 101 98 97 100 106 127 121 113 134 143 142 155 150 145 155 149 140 143 150 151 145 143 147 146
184 181 174 167 164 164 158 152 152 152 159 158 147 141 124 114 125 147 158 151 152 159 164 180 197 203 203 203 200 191 189 191 194 205 204 200 195 187 185 185 182 185 182 173 172 175 179 177 171 173 176 163 135 116 131 141 140 134 124 103 79 102 109 115 111 101 114 116 101 124 130 131 149 143 132 143 144 133 125 127 135 132 130 146 155
203 188 180 167 153 150 148 147 154 155 155 153 143 139 132 118 115 119 129 141 150 160 165 176 197 204 202 203 198 194 191 182 188 204 201 197 192 185 185 184 180 182 183 182 178 180 186 180 175 179 177 158 143 134 129 143 155 144 132 125 97 84 121 132 131 111 111 125 118 126 125 128 142 135 127 131 130 122 114 117 125 117 116 126 127
212 194 179 153 131 132 145 159 170 168 158 154 153 155 153 147 148 144 139 145 157 167 166 172 196 205 201 202 198 194 190 176 188 205 199 196 188 181 182 179 174 176 182 186 179 179 183 177 174 171 171 162 145 141 138 140 153 143 134 133 107 110 138 142 140 110 110 126 132 134 134 132 133 129 126 126 124 121 117 118 117 107 105 102 101
202 196 173 144 136 138 156 176 181 174 158 155 165 172 168 164 172 172 157 156 174 190 177 173 190 198 196 202 203 192 182 170 185 198 194 196 185 176 175 170 170 170 171 180 179 178 179 177 176 168 169 173 155 146 150 151 144 137 136 129 104 115 144 150 146 133 126 125 128 131 135 136 133 133 127 123 129 134 132 124 115 112 111 105 99
200 192 144 133 145 151 167 184 186 177 160 159 173 177 173 171 174 176 169 166 177 190 186 179 187 191 189 197 198 178 166 162 182 189 188 192 180 173 171 165 168 167 165 174 172 167 170 170 169 168 158 151 151 148 152 160 153 149 145 121 113 129 144 147 148 143 129 118 131 132 132 132 131 131 127 128 137 136 128 122 120 121 116 108 102
186 128 114 124 142 155 170 181 183 183 174 172 182 182 181 181 178 177 177 172 173 179 183 183 185 182 180 185 181 164 159 170 187 184 180 181 172 169 168 165 166 164 165 170 163 163 174 173 165 168 161 149 153 149 144 150 145 146 150 126 130 138 125 128 149 145 126 130 149 145 141 136 127 126 131 136 137 129 120 119 123 120 112 109 109
95 103 120 137 151 157 167 176 179 183 182 183 188 185 183 186 186 184 178 169 167 175 179 180 179 176 177 178 174 169 169 175 181 178 176 174 168 167 167 166 164 160 165 166 162 166 175 174 167 166 169 168 165 156 151 153 141 135 147 140 132 135 125 121 143 143 136 140 150 153 155 148 134 138 145 141 136 130 124 126 127 119 114 117 122
103 130 147 159 161 159 166 175 180 179 178 183 187 186 185 186 189 193 187 173 168 174 176 175 176 177 179 176 171 169 167 167 170 170 170 165 158 160 160 158 158 155 162 166 165 168 169 169 171 166 167 182 176 161 157 155 147 140 143 134 116 128 141 145 149 156 153 151 148 150 155 148 140 149 155 148 141 134 129 130 127 120 121 130 131
Height
759 759 762 764 767 767 769 769 771 771 772 774 775 777 779 781 782 784 786 787 789 791 793 795 796 797 799 799 801 802 803 804 805 807 808 809 810 811 811 812 812 813 813 814 814 814 815 815 815 815 815 815 815 816 816 816 816 816 816 817 817 817 818 818 819 819 820 820 821 821 822 822 823 824 824 824 825 825 825 826 826 826 826 826 826
758 760 762 764 767 767 770 770 772 772 774 775 776 779 780 782 783 785 787 788 790 792 794 796 797 799 800 801 802 803 805 806 807 808 809 811 812 813 813 814 814 815 815 815 816 816 817 816 816 816 816 817 817 817 817 817 817 817 817 818 818 819 819 819 820 820 821 821 822 822 823 824 825 825 826 825 825 826 826 827 827 827 827 827 827
757 760 762 763 766 768 770 771 772 773 775 776 778 780 781 783 784 786 788 789 791 793 795 796 799 800 801 802 804 805 806 807 809 810 811 812 813 814 814 815 815 816 816 817 817 818 818 818 818 817 818 818 818 819 819 819 818 819 819 819 819 820 820 821 821 822 822 822 823 824 825 825 826 827 827 827 826 827 827 828 828 828 829 829 828
758 760 762 764 766 768 770 771 773 774 776 777 779 781 783 785 785 788 789 791 792 794 796 798 800 801 803 804 805 807 808 809 810 812 813 814 815 816 816 816 817 817 818 818 819 820 820 820 819 819 819 819 820 820 820 820 819 820 820 820 820 821 821 822 823 823 824 824 824 825 826 827 828 828 828 828 828 828 828 829 829 830 830 830 829
760 760 762 764 767 769 771 772 774 775 777 779 781 782 784 786 787 789 790 792 794 796 797 799 801 802 804 805 807 808 810 811 812 813 815 816 816 817 817 818 818 819 819 820 821 821 821 821 821 821 821 821 821 821 821 821 821 821 821 822 822 822 822 823 823 824 824 824 825 826 827 828 829 829 829 829 829 829 830 830 831 831 831 831 831
761 761 763 765 767 769 771 773 775 777 778 780 782 783 785 787 788 790 792 793 795 797 799 800 802 804 805 807 809 810 811 812 813 815 816 817 817 818 818 819 820 820 821 821 822 823 823 823 823 823 823 822 822 822 822 822 822 822 822 823 823 823 823 824 824 825 825 825 827 828 828 828 829 830 830 830 831 831 831 832 832 832 832 833 832
761 763 765 765 768 770 773 774 776 778 780 782 783 785 786 788 789 791 793 795 797 799 800 802 803 805 807 808 810 811 812 813 815 816 817 818 819 819 820 820 821 821 822 823 824 824 824 824 824 824 824 824 823 823 823 823 824 824 824 824 824 824 824 825 825 826 827 827 828 829 829 829 830 831 832 832 832 832 833 833 833 834 833 834 834
762 765 766 767 769 771 774 775 778 779 781 783 784 786 788 790 791 793 795 796 799 800 802 804 805 806 808 809 811 812 813 815 816 817 818 819 820 820 821 821 822 822 823 824 825 825 825 825 825 825 825 825 825 824 824 824 825 825 825 825 825 825 826 826 827 827 828 829 829 830 830 830 831 832 833 833 833 834 834 834 834 835 835 835 835
765 766 767 769 770 772 775 777 779 781 783 785 786 788 789 791 792 795 797 798 800 802 804 805 807 808 809 810 811 813 814 816 817 818 819 820 821 821 822 822 823 824 824 825 826 826 826 826 826 827 826 826 826 825 825 825 826 827 826 826 826 826 827 827 827 828 830 830 830 830 831 832 832 833 834 834 834 835 835 835 835 836 836 836 836
766 767 769 771 772 774 776 779 781 782 785 786 788 789 791 793 794 796 798 800 802 803 805 806 808 809 810 811 812 814 815 816 817 818 820 820 821 822 823 823 824 825 826 826 826 827 827 827 828 827 827 827 826 826 827 827 827 827 827 827 827 828 828 828 828 829 831 831 831 831 832 833 833 834 835 835 835 835 836 836 836 837 837 837 837
766 769 771 772 775 776 778 781 782 784 786 788 789 791 793 794 796 798 800 802 803 805 806 808 808 810 811 812 813 814 816 817 818 819 820 821 822 823 824 824 825 826 827 827 827 828 828 828 828 828 828 827 827 827 827 828 828 828 828 828 828 828 828 829 829 831 833 832 833 833 833 834 835 836 836 836 836 836 837 837 838 838 838 838 838
768 771 772 774 777 779 781 782 784 787 788 790 791 792 794 795 797 799 801 803 804 806 807 808 809 810 811 813 814 815 816 817 818 819 820 821 822 823 824 825 826 827 827 828 828 828 828 829 829 829 828 828 828 828 828 829 829 829 829 829 829 829 829 829 830 832 834 834 835 835 835 836 836 837 837 837 837 837 838 838 839 838 839 839 839
769 772 773 776 779 782 783 785 787 789 790 792 793 794 796 797 799 801 803 804 806 807 808 810 810 812 812 814 815 816 817 818 819 820 821 822 823 824 825 826 827 828 828 828 829 829 829 829 830 829 829 829 829 829 829 829 830 830 830 830 830 830 830 830 831 834 835 835 836 836 837 837 838 838 838 838 838 839 839 839 840 840 840 840 840
771 773 775 778 781 784 785 788 789 791 793 794 795 796 798 799 800 802 804 805 807 808 809 811 811 813 814 815 816 817 818 818 820 820 821 822 823 825 825 826 827 828 828 829 829 829 830 830 830 830 830 830 830 830 830 831 831 831 831 831 831 831 832 831 833 836 836 837 838 838 838 839 839 840 840 840 840 840 840 841 840 840 841 841 841
772 773 776 779 783 786 788 790 791 794 795 796 798 798 800 801 803 804 806 807 808 809 810 812 813 814 815 816 817 818 819 819 820 821 822 823 824 825 826 827 828 829 829 829 830 830 831 830 831 830 831 831 831 831 831 832 832 832 832 832 832 832 833 833 834 837 837 838 839 839 839 840 841 841 841 841 841 841 841 841 841 841 842 842 842
773 774 776 780 784 788 790 793 794 796 798 799 800 801 803 803 805 806 807 808 809 810 811 813 814 815 816 817 818 819 820 820 821 822 822 823 824 825 826 827 828 829 829 830 830 831 831 831 831 831 831 832 832 832 832 833 833 833 833 833 834 833 834 834 836 838 838 839 839 840 841 841 842 842 842 842 842 842 842 842 842 842 842 843 843
774 776 777 781 785 789 792 795 797 799 801 802 803 804 805 806 807 808 808 809 810 811 812 814 815 816 817 818 819 820 821 822 822 823 824 824 825 826 826 827 828 829 829 830 831 831 832 832 832 832 832 832 833 833 833 834 834 834 834 834 834 835 835 835 838 839 839 840 840 841 842 843 843 843 843 843 843 843 843 843 843 843 843 843 843
775 778 780 784 787 791 794 797 799 802 804 805 807 807 807 808 809 809 810 811 811 813 813 815 816 817 818 819 820 821 822 823 823 824 824 825 825 826 826 828 828 829 830 830 831 832 832 832 832 833 833 833 834 834 834 835 835 835 835 836 836 836 837 837 839 839 839 840 841 842 842 843 844 844 844 844 844 844 844 844 844 844 844 844 844
778 780 783 787 790 794 796 798 801 803 806 808 809 809 810 810 811 811 811 812 813 814 815 816 817 818 819 820 821 822 823 823 824 825 825 825 826 826 827 828 829 829 830 831 832 832 833 833 833 833 833 834 834 835 835 835 836 836 836 837 837 838 838 839 839 839 840 841 842 842 843 844 845 845 845 845 845 845 845 845 845 845 845 845 845
779 781 784 788 790 793 794 797 800 803 806 807 809 810 811 811 812 813 812 813 814 814 816 817 818 819 820 820 822 822 823 824 824 825 825 826 826 827 828 828 829 830 830 831 832 832 833 834 834 834 834 834 835 836 836 837 837 837 837 837 838 838 839 840 839 840 841 842 843 843 844 845 845 846 846 846 846 846 846 846 846 846 846 846 846
779 781 783 785 785 785 786 791 793 796 799 802 805 807 810 811 812 813 813 814 814 816 817 817 819 819 820 821 822 823 823 824 825 825 825 826 826 827 828 829 830 830 831 832 832 833 834 834 834 835 835 835 836 837 837 838 838 838 838 838 839 839 840 841 840 841 842 843 843 844 845 845 846 847 847 847 847 847 847 847 847 847 848 848 847
778 780 782 783 783 782 783 787 788 788 788 792 798 804 808 810 812 813 813 815 815 816 817 818 819 819 821 821 822 823 823 824 824 825 826 826 827 827 828 829 830 830 831 832 833 834 834 835 835 835 835 836 836 837 838 838 839 839 839 839 840 840 842 842 841 842 843 843 844 845 846 847 847 848 848 848 848 848 848 848 848 849 849 849 849
776 779 781 782 783 784 785 787 788 788 787 788 795 801 805 808 810 812 812 814 815 816 817 818 819 820 821 821 822 823 824 824 824 825 826 826 827 828 829 829 830 831 831 832 833 834 835 835 836 836 836 837 837 838 839 839 840 840 840 840 840 841 843 844 842 843 844 844 845 847 847 848 848 849 849 849 850 850 850 850 850 850 850 850 850
775 777 779 781 782 783 785 786 787 789 790 791 794 798 801 804 807 809 811 812 814 815 817 818 819 820 821 821 822 823 824 824 825 826 826 827 827 828 829 829 830 831 832 833 834 834 835 836 836 837 837 837 838 839 840 840 840 841 841 841 842 843 844 844 843 843 845 845 846 848 849 849 849 850 850 850 851 851 851 851 851 851 851 852 852
774 777 779 780 781 782 783 784 786 787 790 792 792 793 796 800 803 806 808 810 812 814 816 818 819 820 821 822 822 822 823 824 825 826 826 827 828 829 829 830 830 831 832 832 833 834 835 836 836 837 837 838 838 840 840 840 841 841 841 842 843 843 844 845 844 844 846 846 847 849 850 850 851 851 852 852 852 852 852 852 852 853 853 853 853
773 776 777 778 780 781 782 783 785 786 789 791 791 791 793 797 800 803 806 809 811 813 815 816 817 819 820 821 822 822 823 824 825 825 826 827 828 829 829 830 830 830 831 832 833 834 835 835 836 837 838 838 839 840 840 841 841 842 842 843 844 843 844 846 844 845 847 847 849 850 851 851 852 852 852 853 853 853 853 853 853 854 854 854 854
771 774 776 778 780 781 783 784 786 787 789 792 793 792 792 794 797 801 804 807 809 811 813 814 816 817 819 820 821 823 823 824 825 826 826 827 828 829 829 830 830 830 830 831 832 833 834 835 836 837 838 838 839 840 840 841 841 842 843 843 844 844 845 846 845 846 847 848 850 851 852 852 852 853 853 853 854 854 853 854 854 854 854 855 855
771 774 776 778 780 782 783 785 787 789 790 792 794 792 791 792 796 800 802 804 807 810 811 812 814 816 818 820 821 822 823 823 825 826 827 827 828 829 829 830 830 831 830 831 832 833 834 835 836 836 837 838 839 840 840 841 841 843 843 843 846 847 846 846 847 847 847 849 850 851 852 852 853 853 854 854 854 854 854 855 855 855 856 856 856
771 773 776 778 780 782 785 787 789 791 792 793 794 793 791 791 794 798 800 803 806 808 810 810 812 814 817 819 820 822 822 823 824 826 828 828 829 830 830 830 831 831 831 832 832 833 834 835 835 836 836 838 839 839 840 840 841 843 843 845 848 847 845 847 848 848 848 849 850 851 852 853 853 854 854 855 855 855 856 856 856 857 857 857 857
771 773 776 778 780 782 785 788 791 793 794 795 796 795 794 792 793 796 799 802 805 807 808 809 811 813 816 818 820 821 822 823 824 826 827 828 829 830 831 831 831 831 832 832 832 833 834 834 835 836 836 837 838 839 839 840 842 843 843 845 846 844 845 848 849 849 849 850 850 851 852 853 854 854 855 855 856 856 857 857 857 857 858 858 858
771 774 775 777 779 782 785 788 790 792 793 795 796 797 796 795 795 797 799 802 804 806 807 808 810 812 815 817 819 820 822 823 825 826 826 827 829 830 831 832 832 832 832 832 833 834 834 834 835 836 836 837 838 838 839 840 841 843 844 845 845 844 846 848 849 849 850 850 851 852 852 853 854 855 855 856 857 857 858 858 858 858 858 859 859
771 773 775 777 779 782 785 787 787 789 791 793 795 796 796 796 796 798 800 802 804 805 806 808 809 811 813 816 818 819 822 823 825 826 826 828 830 831 832 832 833 833 833 833 833 834 834 834 834 835 836 837 838 838 838 840 841 842 845 847 846 845 847 848 848 849 850 850 851 852 853 854 855 855 856 856 857 858 858 858 859 859 859 860 860
771 773 775 777 780 783 786 787 786 787 789 791 793 794 794 795 797 798 800 802 804 805 806 807 808 810 812 814 817 819 822 824 826 826 828 832 833 831 832 833 834 835 835 834 834 834 834 834 834 835 836 837 838 838 839 840 841 844 846 847 846 845 847 848 848 849 850 850 851 853 853 854 855 856 857 857 858 859 859 859 860 860 860 860 860
770 772 775 777 779 781 783 784 785 785 788 790 791 792 793 795 796 798 800 801 803 804 805 807 807 809 811 814 816 819 822 825 826 827 830 836 836 832 832 833 834 835 836 835 835 834 834 834 834 835 836 837 838 839 839 840 842 844 846 847 846 845 846 847 848 849 850 850 852 853 854 855 855 856 857 858 859 859 860 860 860 861 861 861 861
769 771 774 775 776 777 778 779 782 785 787 789 790 791 793 795 796 797 799 800 802 803 805 806 807 809 812 814 817 820 823 825 826 827 831 836 836 834 833 833 834 835 836 835 835 835 834 834 835 835 837 838 839 839 840 841 843 844 845 847 846 844 845 846 848 849 850 851 852 853 854 855 855 857 857 858 859 859 860 860 861 861 861 862 862
769 770 773 774 775 776 777 779 782 785 786 788 790 793 795 795 795 796 798 799 801 803 805 806 807 810 813 815 818 821 824 827 827 827 832 835 833 833 833 833 834 834 834 834 834 834 834 834 834 835 837 838 839 840 840 841 843 844 846 846 845 844 845 847 848 850 851 851 853 853 854 855 855 857 858 858 859 859 860 861 861 862 862 862 862
768 770 772 773 774 776 778 780 782 784 786 788 791 794 795 795 795 796 798 799 800 803 805 806 807 810 812 815 818 821 825 827 827 828 832 833 832 833 833 833 834 833 833 833 833 834 834 834 834 835 837 838 839 840 840 841 843 845 846 844 844 845 846 848 849 850 851 852 853 853 854 855 856 857 858 859 859 859 860 861 862 862 863 863 863
769 770 772 773 773 775 778 780 782 784 786 787 790 794 794 795 795 797 798 799 801 803 805 806 807 809 812 814 817 821 825 827 828 830 831 832 832 832 833 833 832 832 832 831 832 834 834 834 834 835 837 838 839 840 841 841 842 845 845 843 845 847 848 849 850 850 851 852 853 854 855 856 856 857 858 859 859 859 860 861 862 862 863 863 864
769 770 772 772 773 775 777 780 782 784 785 787 791 794 794 795 797 798 800 801 803 805 806 806 808 810 812 815 819 822 825 827 829 830 830 831 831 831 832 832 831 831 830 831 833 834 834 834 834 836 837 837 839 840 841 842 843 845 844 845 847 848 848 849 850 850 851 852 853 854 855 856 857 858 859 859 860 861 861 861 862 863 863 864 864
768 770 772 773 773 775 777 780 782 784 786 789 793 795 795 796 798 800 801 802 804 806 807 807 808 811 814 817 820 822 824 826 828 828 829 830 830 830 830 830 830 830 830 831 833 834 833 834 835 836 837 838 839 840 841 842 843 845 845 846 848 848 849 849 850 850 851 852 853 854 855 856 857 858 859 860 861 861 861 862 863 863 864 864 864
768 770 771 772 774 775 778 780 782 785 788 791 795 795 795 797 799 801 803 805 806 808 808 807 809 812 815 818 820 821 822 825 827 827 828 829 829 829 829 829 829 829 830 831 833 833 833 834 835 836 837 838 839 840 841 842 843 845 845 846 848 849 849 850 851 851 852 853 853 854 855 856 857 858 860 861 861 862 862 862 863 864 864 864 864
768 769 770 771 773 775 779 781 784 787 790 793 795 795 796 798 800 803 806 808 809 809 809 808 811 814 816 818 820 821 822 825 827 829 829 828 827 828 828 828 829 830 831 831 832 833 833 834 835 836 837 838 839 840 841 842 843 845 845 845 848 850 850 851 852 853 853 854 855 855 855 856 858 859 861 862 862 863 863 863 864 864 864 864 864
768 769 769 770 772 775 779 783 786 789 791 794 795 796 798 799 801 804 806 808 809 809 809 811 814 816 816 817 819 822 824 824 826 828 829 827 826 826 827 827 828 829 830 831 831 832 833 834 835 836 836 837 839 839 840 841 842 843 844 845 847 849 851 852 853 854 854 855 857 857 857 858 859 859 861 862 863 863 864 864 864 864 864 864 864
768 768 769 769 772 776 780 783 786 788 790 793 795 797 798 800 802 803 804 806 808 809 810 813 816 816 816 816 818 821 824 823 824 825 826 826 827 826 827 827 828 829 829 830 831 832 833 834 835 836 836 837 838 839 840 840 841 842 843 845 846 848 852 854 854 856 856 856 857 858 859 860 859 860 861 862 863 864 865 865 865 865 865 864 864
766 766 768 770 773 778 782 785 786 786 788 792 794 796 797 799 801 803 804 804 807 810 813 814 815 816 815 815 817 819 821 822 823 824 824 825 826 826 826 827 827 828 829 829 830 831 832 833 834 835 836 836 837 838 839 840 840 841 842 844 846 848 851 852 854 858 858 857 858 859 860 860 860 861 862 863 863 864 865 865 865 865 865 865 864
761 763 766 770 774 779 783 784 784 784 786 789 792 793 794 796 800 803 803 803 807 811 812 812 813 814 813 814 815 816 817 818 820 822 822 823 824 825 825 826 826 827 828 828 830 831 832 833 834 835 836 836 836 837 838 839 840 841 842 842 844 846 847 849 852 856 859 859 859 860 861 861 860 860 862 863 864 865 865 865 865 865 865 865 864
755 759 763 768 772 778 781 781 781 783 786 788 790 791 793 794 796 799 800 802 806 809 810 810 810 812 812 812 812 813 814 815 817 820 821 822 823 824 824 825 826 826 827 828 829 830 832 833 834 835 835 835 836 837 837 838 839 841 842 842 843 844 845 846 849 853 857 859 860 860 861 862 861 861 862 863 864 865 865 865 866 866 866 865 865
752 757 762 767 773 776 777 777 779 782 784 786 787 788 791 792 793 795 797 799 802 805 807 808 809 810 811 810 810 811 812 813 816 819 820 821 822 823 824 825 826 826 827 828 829 830 831 832 834 834 835 835 835 836 837 838 839 840 841 843 844 845 845 845 846 849 852 857 859 860 861 862 863 862 863 863 864 865 865 866 866 866 866 866 866
754 760 766 770 774 774 773 775 776 778 781 782 783 785 787 789 791 793 795 797 800 802 805 806 807 808 809 809 809 809 810 813 816 818 820 821 822 823 823 824 825 825 827 828 828 829 830 831 832 833 834 834 835 836 837 838 839 840 841 842 843 844 845 846 847 848 849 854 858 859 860 862 862 863 863 864 864 865 865 866 866 866 867 867 866
756 765 771 773 773 772 772 773 773 773 776 778 780 782 784 786 788 790 791 794 797 800 803 805 806 807 808 808 809 809 811 813 816 818 820 821 822 822 823 823 824 825 826 827 828 829 830 830 831 832 832 833 835 836 837 838 839 839 840 841 843 844 845 846 847 848 849 852 855 856 858 860 861 862 863 864 864 865 865 866 867 867 867 867 867
760 768 773 772 771 770 769 769 769 770 772 774 777 780 783 784 786 787 788 789 792 796 800 804 805 806 807 808 808 810 811 814 816 818 819 820 821 822 822 823 824 825 826 827 828 828 829 830 830 831 832 833 835 835 836 837 838 839 840 841 843 843 844 845 847 848 848 850 852 854 856 858 860 861 862 863 864 865 866 866 867 867 867 867 867